| time (UTC) | temp F | wind direction | speed MPH | gust MPH | rain 1hr in | rain 24hr in | rain mn in | humidity % | barometer mb |
| 20260905184906 | 55 | 337 | 1.0 | 9.0 | 0.00 | 0.00 | 0.01 | 76 | 1005.2 |
| 20260905184401 | 55 | 355 | 2.0 | 8.0 | 0.00 | 0.00 | 0.01 | 75 | 1005.0 |
| 20260905183855 | 55 | 283 | 2.0 | 9.0 | 0.00 | 0.00 | 0.01 | 74 | 1004.9 |
| 20260905183350 | 56 | 310 | 7.0 | 9.0 | 0.00 | 0.00 | 0.01 | 74 | 1004.7 |
| 20260905182845 | 56 | 288 | 2.0 | 10.0 | 0.00 | 0.00 | 0.01 | 73 | 1004.5 |
| 20260905182340 | 56 | 52 | 3.0 | 14.0 | 0.00 | 0.00 | 0.01 | 73 | 1004.4 |
| 20260905181835 | 57 | 27 | 0.0 | 6.0 | 0.00 | 0.00 | 0.01 | 73 | 1004.3 |
| 20260905181329 | 57 | 76 | 2.0 | 13.0 | 0.00 | 0.00 | 0.01 | 73 | 1004.2 |
| 20260905180824 | 58 | 355 | 6.0 | 11.0 | 0.00 | 0.00 | 0.01 | 73 | 1004.0 |
| 20260905180319 | 58 | 18 | 3.0 | 19.0 | 0.00 | 0.00 | 0.01 | 74 | 1004.0 |
| 20260905175814 | 58 | 252 | 11.0 | 17.0 | 0.00 | 0.00 | 0.01 | 75 | 1003.8 |
| 20260905175309 | 58 | 351 | 6.0 | 15.0 | 0.00 | 0.00 | 0.01 | 75 | 1003.8 |
| 20260905174255 | 59 | 279 | 14.0 | 20.0 | 0.00 | 0.00 | 0.01 | 74 | 1003.7 |
| 20260905173750 | 59 | 303 | 10.0 | 20.0 | 0.00 | 0.00 | 0.01 | 74 | 1003.4 |
| 20260905173245 | 59 | 270 | 8.0 | 19.0 | 0.00 | 0.00 | 0.01 | 74 | 1003.5 |
| 20260905172740 | 59 | 135 | 1.0 | 19.0 | 0.00 | 0.00 | 0.01 | 73 | 1003.3 |
| 20260905172234 | 59 | 300 | 6.0 | 15.0 | 0.00 | 0.00 | 0.01 | 74 | 1003.2 |
| 20260905171729 | 59 | 281 | 10.0 | 16.0 | 0.00 | 0.00 | 0.01 | 75 | 1003.3 |
| 20260905171224 | 58 | 279 | 8.0 | 16.0 | 0.00 | 0.00 | 0.01 | 74 | 1003.1 |
| 20260905170719 | 58 | 315 | 8.0 | 18.0 | 0.00 | 0.00 | 0.01 | 74 | 1003.2 |
| 20260905170214 | 58 | 270 | 10.0 | 16.0 | 0.00 | 0.00 | 0.01 | 75 | 1003.1 |
| 20260905165708 | 58 | 297 | 9.0 | 13.0 | 0.00 | 0.00 | 0.01 | 75 | 1003.0 |
| 20260905165203 | 58 | 306 | 4.0 | 19.0 | 0.00 | 0.00 | 0.01 | 74 | 1003.1 |
| 20260905164658 | 58 | 303 | 4.0 | 24.0 | 0.00 | 0.00 | 0.01 | 74 | 1003.1 |
| 20260905164153 | 58 | 315 | 18.0 | 20.0 | 0.00 | 0.00 | 0.01 | 74 | 1003.0 |
| 20260905163648 | 58 | 4 | 8.0 | 18.0 | 0.00 | 0.00 | 0.01 | 74 | 1003.0 |
| 20260905163142 | 58 | 252 | 10.0 | 25.0 | 0.00 | 0.00 | 0.01 | 73 | 1002.8 |
| 20260905162637 | 58 | 261 | 7.0 | 33.0 | 0.00 | 0.00 | 0.01 | 71 | 1002.8 |
| 20260905162132 | 58 | 298 | 12.0 | 31.0 | 0.00 | 0.00 | 0.01 | 71 | 1003.0 |
| 20260905161627 | 59 | 351 | 10.0 | 23.0 | 0.00 | 0.00 | 0.01 | 70 | 1002.7 |
| 20260905161122 | 59 | 135 | 7.0 | 28.0 | 0.00 | 0.00 | 0.01 | 70 | 1002.8 |
| 20260905160616 | 58 | 261 | 12.0 | 19.0 | 0.00 | 0.00 | 0.01 | 70 | 1002.8 |
| 20260905160111 | 58 | 315 | 18.0 | 22.0 | 0.00 | 0.00 | 0.01 | 69 | 1002.7 |
| 20260905155606 | 58 | 285 | 15.0 | 17.0 | 0.00 | 0.00 | 0.01 | 69 | 1002.7 |
| 20260905155101 | 58 | 256 | 8.0 | 17.0 | 0.00 | 0.00 | 0.01 | 68 | 1002.6 |
| 20260905154556 | 58 | 279 | 6.0 | 17.0 | 0.00 | 0.00 | 0.01 | 69 | 1002.5 |
| 20260905154050 | 58 | 330 | 7.0 | 29.0 | 0.00 | 0.00 | 0.01 | 68 | 1002.6 |
| 20260905153545 | 58 | 270 | 7.0 | 14.0 | 0.00 | 0.00 | 0.01 | 69 | 1002.6 |
| 20260905153040 | 58 | 265 | 9.0 | 27.0 | 0.00 | 0.00 | 0.01 | 69 | 1002.4 |
| 20260905152535 | 57 | 247 | 10.0 | 15.0 | 0.00 | 0.00 | 0.01 | 69 | 1002.4 |
| 20260905152030 | 57 | 270 | 16.0 | 22.0 | 0.00 | 0.00 | 0.01 | 69 | 1002.4 |
| 20260905151524 | 58 | 270 | 8.0 | 20.0 | 0.00 | 0.00 | 0.01 | 68 | 1002.4 |
| 20260905151019 | 58 | 288 | 8.0 | 25.0 | 0.00 | 0.00 | 0.01 | 67 | 1002.4 |
| 20260905150514 | 59 | 256 | 18.0 | 18.0 | 0.00 | 0.00 | 0.01 | 64 | 1002.3 |
| 20260905150009 | 60 | 261 | 10.0 | 27.0 | 0.00 | 0.00 | 0.01 | 63 | 1002.3 |
| 20260905145504 | 61 | 270 | 11.0 | 33.0 | 0.00 | 0.00 | 0.01 | 61 | 1002.3 |
| 20260905144958 | 61 | 265 | 19.0 | 40.0 | 0.00 | 0.00 | 0.01 | 60 | 1002.3 |
| 20260905144453 | 60 | 234 | 23.0 | 23.0 | 0.00 | 0.00 | 0.01 | 63 | 1002.1 |
| 20260905143948 | 60 | 195 | 10.0 | 26.0 | 0.00 | 0.00 | 0.01 | 62 | 1002.1 |
| 20260905143443 | 60 | 243 | 14.0 | 22.0 | 0.00 | 0.00 | 0.01 | 62 | 1002.2 |
| 20260905142938 | 60 | 243 | 9.0 | 25.0 | 0.00 | 0.00 | 0.01 | 60 | 1002.2 |
| 20260905142432 | 61 | 265 | 16.0 | 31.0 | 0.00 | 0.00 | 0.01 | 59 | 1002.2 |
| 20260905141927 | 62 | 234 | 13.0 | 37.0 | 0.00 | 0.00 | 0.01 | 59 | 1002.3 |
| 20260905141422 | 62 | 274 | 18.0 | 37.0 | 0.00 | 0.00 | 0.01 | 59 | 1001.7 |
| 20260905140917 | 61 | 261 | 26.0 | 26.0 | 0.00 | 0.00 | 0.01 | 61 | 1002.2 |
| 20260905140412 | 62 | 265 | 18.0 | 26.0 | 0.00 | 0.00 | 0.01 | 61 | 1002.2 |
| 20260905135906 | 62 | 252 | 13.0 | 19.0 | 0.00 | 0.00 | 0.01 | 62 | 1002.1 |
| 20260905135401 | 61 | 270 | 22.0 | 30.0 | 0.00 | 0.00 | 0.01 | 60 | 1001.9 |
| 20260905134856 | 62 | 247 | 25.0 | 26.0 | 0.00 | 0.00 | 0.01 | 58 | 1001.9 |
| 20260905134351 | 62 | 252 | 25.0 | 34.0 | 0.00 | 0.00 | 0.01 | 58 | 1002.0 |
| 20260905133846 | 62 | 265 | 35.0 | 44.0 | 0.00 | 0.00 | 0.01 | 58 | 1001.8 |
| 20260905133340 | 62 | 270 | 21.0 | 37.0 | 0.00 | 0.00 | 0.01 | 58 | 1001.9 |
| 20260905132835 | 63 | 265 | 29.0 | 29.0 | 0.00 | 0.00 | 0.01 | 60 | 1001.8 |
| 20260905132330 | 63 | 256 | 18.0 | 19.0 | 0.00 | 0.00 | 0.01 | 60 | 1001.9 |
| 20260905131825 | 63 | 274 | 8.0 | 27.0 | 0.00 | 0.00 | 0.01 | 61 | 1001.9 |
| 20260905131320 | 63 | 315 | 7.0 | 19.0 | 0.00 | 0.00 | 0.01 | 61 | 1001.8 |
| 20260905130814 | 63 | 243 | 20.0 | 32.0 | 0.00 | 0.00 | 0.01 | 61 | 1001.8 |
| 20260905130309 | 62 | 261 | 15.0 | 26.0 | 0.00 | 0.00 | 0.01 | 63 | 1001.8 |
| 20260905125804 | 62 | 261 | 21.0 | 30.0 | 0.00 | 0.00 | 0.01 | 60 | 1001.8 |
| 20260905125259 | 62 | 261 | 26.0 | 34.0 | 0.00 | 0.00 | 0.01 | 60 | 1001.8 |
| 20260905124754 | 63 | 270 | 20.0 | 33.0 | 0.00 | 0.00 | 0.01 | 61 | 1001.6 |
| 20260905124248 | 63 | 229 | 21.0 | 28.0 | 0.00 | 0.00 | 0.01 | 62 | 1001.6 |
| 20260905123743 | 62 | 274 | 10.0 | 21.0 | 0.00 | 0.00 | 0.01 | 63 | 1001.6 |
| 20260905123238 | 62 | 261 | 15.0 | 25.0 | 0.00 | 0.00 | 0.01 | 61 | 1001.6 |
| 20260905122733 | 62 | 238 | 9.0 | 23.0 | 0.00 | 0.00 | 0.01 | 62 | 1001.7 |
| 20260905122228 | 63 | 252 | 28.0 | 28.0 | 0.00 | 0.00 | 0.01 | 61 | 1001.6 |
| 20260905121722 | 63 | 270 | 9.0 | 22.0 | 0.00 | 0.00 | 0.01 | 64 | 1001.6 |
| 20260905121217 | 63 | 236 | 7.0 | 23.0 | 0.00 | 0.00 | 0.01 | 65 | 1001.5 |
| 20260905120712 | 62 | 238 | 8.0 | 27.0 | 0.00 | 0.00 | 0.01 | 65 | 1001.5 |
| 20260905120207 | 62 | 234 | 9.0 | 26.0 | 0.00 | 0.00 | 0.01 | 65 | 1001.5 |
| 20260905115702 | 62 | 261 | 18.0 | 26.0 | 0.00 | 0.00 | 0.01 | 65 | 1001.5 |
| 20260905115157 | 61 | 265 | 14.0 | 25.0 | 0.00 | 0.00 | 0.01 | 65 | 1001.5 |
| 20260905114651 | 61 | 270 | 13.0 | 28.0 | 0.00 | 0.00 | 0.01 | 66 | 1001.6 |
| 20260905114146 | 60 | 256 | 8.0 | 26.0 | 0.00 | 0.00 | 0.01 | 66 | 1001.4 |
| 20260905113641 | 60 | 256 | 23.0 | 24.0 | 0.00 | 0.00 | 0.01 | 65 | 1001.2 |
| 20260905113136 | 61 | 15 | 10.0 | 28.0 | 0.00 | 0.00 | 0.01 | 66 | 1001.4 |
| 20260905112631 | 61 | 265 | 17.0 | 22.0 | 0.00 | 0.00 | 0.01 | 67 | 1001.4 |
| 20260905112125 | 60 | 279 | 14.0 | 21.0 | 0.00 | 0.00 | 0.01 | 67 | 1001.4 |
| 20260905111620 | 60 | 225 | 16.0 | 21.0 | 0.00 | 0.00 | 0.01 | 65 | 1001.4 |
| 20260905111115 | 61 | 252 | 6.0 | 25.0 | 0.00 | 0.00 | 0.00 | 69 | 1001.4 |
| 20260905110610 | 60 | 256 | 10.0 | 18.0 | 0.00 | 0.00 | 0.00 | 67 | 1001.2 |
| 20260905110105 | 60 | 243 | 11.0 | 19.0 | 0.00 | 0.00 | 0.00 | 64 | 1001.1 |
| 20260905105559 | 62 | 283 | 25.0 | 26.0 | 0.00 | 0.00 | 0.00 | 61 | 1001.1 |
| 20260905105054 | 63 | 265 | 23.0 | 25.0 | 0.00 | 0.00 | 0.00 | 65 | 1000.9 |
| 20260905104549 | 61 | 252 | 10.0 | 16.0 | 0.00 | 0.00 | 0.00 | 66 | 1001.0 |
| 20260905104044 | 60 | 270 | 8.0 | 29.0 | 0.00 | 0.00 | 0.00 | 64 | 1001.0 |
| 20260905103539 | 61 | 243 | 22.0 | 27.0 | 0.00 | 0.00 | 0.00 | 61 | 1001.1 |
| 20260905103033 | 62 | 270 | 27.0 | 33.0 | 0.00 | 0.00 | 0.00 | 60 | 1001.1 |
| 20260905102528 | 63 | 256 | 20.0 | 21.0 | 0.00 | 0.00 | 0.00 | 61 | 1000.9 |
| 20260905102023 | 63 | 270 | 11.0 | 26.0 | 0.00 | 0.00 | 0.00 | 62 | 1000.8 |
| 20260905101518 | 62 | 229 | 11.0 | 29.0 | 0.00 | 0.00 | 0.00 | 63 | 1000.8 |
| 20260905101013 | 62 | 256 | 15.0 | 44.0 | 0.00 | 0.00 | 0.00 | 62 | 1000.8 |
| 20260905100507 | 62 | 247 | 20.0 | 20.0 | 0.00 | 0.00 | 0.00 | 65 | 1000.8 |
| 20260905100002 | 62 | 265 | 16.0 | 21.0 | 0.00 | 0.00 | 0.00 | 65 | 1000.7 |
| 20260905095457 | 61 | 247 | 21.0 | 30.0 | 0.00 | 0.00 | 0.00 | 65 | 1000.5 |
| 20260905094952 | 61 | 265 | 24.0 | 24.0 | 0.00 | 0.00 | 0.00 | 68 | 1000.6 |
| 20260905094447 | 59 | 252 | 20.0 | 20.0 | 0.00 | 0.00 | 0.00 | 68 | 1000.6 |
| 20260905093941 | 60 | 265 | 12.0 | 19.0 | 0.00 | 0.00 | 0.00 | 65 | 1000.6 |
| 20260905093436 | 61 | 243 | 20.0 | 32.0 | 0.00 | 0.00 | 0.00 | 64 | 1000.6 |
| 20260905092931 | 62 | 270 | 15.0 | 26.0 | 0.00 | 0.00 | 0.00 | 68 | 1000.4 |
| 20260905092426 | 61 | 261 | 23.0 | 23.0 | 0.00 | 0.00 | 0.00 | 71 | 1000.4 |
| 20260905091921 | 59 | 252 | 11.0 | 16.0 | 0.00 | 0.00 | 0.00 | 71 | 1000.4 |
| 20260905091415 | 58 | 306 | 15.0 | 22.0 | 0.00 | 0.00 | 0.00 | 72 | 1000.3 |
| 20260905090910 | 58 | 270 | 6.0 | 16.0 | 0.00 | 0.00 | 0.00 | 74 | 1000.3 |
| 20260905090405 | 57 | 229 | 9.0 | 15.0 | 0.00 | 0.00 | 0.00 | 71 | 1000.3 |
| 20260905085900 | 58 | 261 | 10.0 | 19.0 | 0.00 | 0.00 | 0.00 | 69 | 1000.3 |
| 20260905085355 | 58 | 319 | 1.0 | 16.0 | 0.00 | 0.00 | 0.00 | 68 | 1000.4 |
| 20260905084849 | 59 | 315 | 9.0 | 23.0 | 0.00 | 0.00 | 0.00 | 65 | 1000.2 |
| 20260905084344 | 60 | 261 | 14.0 | 26.0 | 0.00 | 0.00 | 0.00 | 65 | 1000.2 |
| 20260905083839 | 60 | 252 | 11.0 | 31.0 | 0.00 | 0.00 | 0.00 | 65 | 999.9 |
| 20260905083334 | 60 | 306 | 15.0 | 28.0 | 0.00 | 0.00 | 0.00 | 67 | 1000.0 |
| 20260905082829 | 59 | 256 | 6.0 | 26.0 | 0.00 | 0.00 | 0.00 | 66 | 999.9 |
| 20260905082324 | 60 | 234 | 16.0 | 26.0 | 0.00 | 0.00 | 0.00 | 66 | 999.8 |
| 20260905081818 | 60 | 256 | 14.0 | 29.0 | 0.00 | 0.00 | 0.30 | 65 | 999.9 |
| 20260905081313 | 60 | 229 | 17.0 | 20.0 | 0.00 | 0.00 | 0.30 | 66 | 999.9 |
| 20260905080808 | 61 | 270 | 11.0 | 29.0 | 0.00 | 0.00 | 0.30 | 65 | 999.9 |
| 20260905080303 | 60 | 270 | 13.0 | 20.0 | 0.00 | 0.00 | 0.30 | 67 | 999.8 |
| 20260905075757 | 60 | 261 | 10.0 | 24.0 | 0.00 | 0.00 | 0.30 | 67 | 999.7 |
| 20260905074747 | 59 | 256 | 24.0 | 25.0 | 0.00 | 0.00 | 0.30 | 71 | 999.5 |
| 20260905074242 | 59 | 315 | 20.0 | 26.0 | 0.00 | 0.00 | 0.30 | 70 | 999.6 |
| 20260905073737 | 59 | 274 | 17.0 | 30.0 | 0.00 | 0.00 | 0.30 | 71 | 999.5 |
| 20260905073231 | 58 | 265 | 20.0 | 30.0 | 0.00 | 0.00 | 0.30 | 72 | 999.4 |
| 20260905072726 | 58 | 247 | 29.0 | 29.0 | 0.00 | 0.00 | 0.30 | 73 | 999.3 |
| 20260905072221 | 58 | 281 | 14.0 | 27.0 | 0.00 | 0.00 | 0.30 | 72 | 999.3 |
| 20260905071716 | 58 | 270 | 18.0 | 29.0 | 0.00 | 0.00 | 0.30 | 72 | 999.2 |
| 20260905071211 | 58 | 265 | 28.0 | 28.0 | 0.00 | 0.00 | 0.30 | 73 | 999.2 |
| 20260905070705 | 58 | 315 | 8.0 | 20.0 | 0.00 | 0.00 | 0.30 | 73 | 999.3 |
| 20260905070200 | 58 | 279 | 6.0 | 19.0 | 0.00 | 0.00 | 0.30 | 73 | 999.2 |
| 20260905065655 | 58 | 281 | 7.0 | 16.0 | 0.00 | 0.00 | 0.30 | 74 | 999.3 |
| 20260905065150 | 58 | 279 | 23.0 | 23.0 | 0.00 | 0.00 | 0.30 | 74 | 999.2 |
| 20260905064645 | 57 | 297 | 11.0 | 16.0 | 0.00 | 0.00 | 0.30 | 74 | 999.0 |
| 20260905064140 | 57 | 252 | 16.0 | 24.0 | 0.00 | 0.00 | 0.30 | 75 | 999.0 |
| 20260905063634 | 58 | 252 | 21.0 | 22.0 | 0.00 | 0.00 | 0.30 | 75 | 998.9 |
| 20260905063129 | 58 | 252 | 14.0 | 16.0 | 0.00 | 0.00 | 0.30 | 77 | 998.8 |
| 20260905062624 | 57 | 247 | 21.0 | 21.0 | 0.00 | 0.00 | 0.30 | 78 | 998.7 |
| 20260905062119 | 56 | 270 | 9.0 | 18.0 | 0.00 | 0.00 | 0.30 | 76 | 998.4 |
| 20260905061614 | 57 | 315 | 12.0 | 18.0 | 0.00 | 0.00 | 0.30 | 76 | 998.7 |
| 20260905061108 | 57 | 229 | 7.0 | 16.0 | 0.00 | 0.00 | 0.30 | 77 | 998.6 |
| 20260905060603 | 57 | 279 | 7.0 | 20.0 | 0.00 | 0.00 | 0.30 | 76 | 998.6 |
| 20260905060058 | 57 | 238 | 13.0 | 22.0 | 0.00 | 0.00 | 0.30 | 76 | 998.4 |
| 20260905055553 | 57 | 279 | 15.0 | 22.0 | 0.00 | 0.00 | 0.30 | 77 | 998.4 |
| 20260905055048 | 57 | 261 | 4.0 | 15.0 | 0.00 | 0.00 | 0.30 | 78 | 998.4 |
| 20260905054542 | 56 | 252 | 2.0 | 15.0 | 0.00 | 0.00 | 0.30 | 78 | 998.1 |
| 20260905054037 | 56 | 258 | 12.0 | 16.0 | 0.00 | 0.00 | 0.30 | 79 | 998.2 |
| 20260905053532 | 56 | 265 | 20.0 | 27.0 | 0.00 | 0.00 | 0.30 | 79 | 998.1 |
| 20260905053027 | 56 | 252 | 10.0 | 14.0 | 0.00 | 0.00 | 0.30 | 81 | 998.1 |
| 20260905052522 | 56 | 265 | 6.0 | 21.0 | 0.00 | 0.00 | 0.30 | 81 | 998.1 |
| 20260905052016 | 56 | 252 | 4.0 | 19.0 | 0.00 | 0.00 | 0.30 | 82 | 997.9 |
| 20260905051511 | 56 | 5 | 3.0 | 26.0 | 0.00 | 0.00 | 0.30 | 82 | 998.0 |
| 20260905051006 | 56 | 274 | 15.0 | 21.0 | 0.00 | 0.00 | 0.30 | 82 | 997.8 |
| 20260905050501 | 56 | 292 | 12.0 | 20.0 | 0.00 | 0.00 | 0.30 | 82 | 997.8 |
| 20260905045956 | 56 | 270 | 13.0 | 26.0 | 0.00 | 0.00 | 0.30 | 82 | 997.8 |
| 20260905045450 | 56 | 247 | 23.0 | 23.0 | 0.00 | 0.00 | 0.30 | 82 | 997.7 |
| 20260905044945 | 56 | 252 | 11.0 | 23.0 | 0.00 | 0.00 | 0.30 | 83 | 997.8 |
| 20260905044440 | 56 | 256 | 7.0 | 15.0 | 0.00 | 0.00 | 0.30 | 83 | 997.7 |
| 20260905043935 | 56 | 225 | 8.0 | 23.0 | 0.00 | 0.00 | 0.30 | 83 | 997.7 |
| 20260905043430 | 56 | 270 | 10.0 | 23.0 | 0.00 | 0.00 | 0.30 | 84 | 997.5 |
| 20260905042924 | 56 | 234 | 8.0 | 16.0 | 0.00 | 0.00 | 0.30 | 84 | 997.5 |
| 20260905042419 | 56 | 270 | 14.0 | 19.0 | 0.00 | 0.00 | 0.30 | 84 | 997.6 |
| 20260905041914 | 56 | 238 | 11.0 | 21.0 | 0.00 | 0.00 | 0.30 | 84 | 997.5 |
| 20260905041409 | 56 | 256 | 21.0 | 22.0 | 0.00 | 0.00 | 0.30 | 84 | 997.6 |
| 20260905040904 | 56 | 234 | 3.0 | 22.0 | 0.00 | 0.00 | 0.30 | 84 | 997.4 |
| 20260905040358 | 56 | 337 | 13.0 | 22.0 | 0.00 | 0.00 | 0.30 | 85 | 997.3 |
| 20260905035853 | 56 | 270 | 14.0 | 18.0 | 0.00 | 0.00 | 0.30 | 85 | 997.5 |
| 20260905035348 | 56 | 243 | 8.0 | 18.0 | 0.00 | 0.00 | 0.30 | 85 | 997.4 |
| 20260905034843 | 56 | 274 | 13.0 | 22.0 | 0.00 | 0.00 | 0.30 | 86 | 997.2 |
| 20260905034338 | 56 | 315 | 19.0 | 23.0 | 0.00 | 0.00 | 0.30 | 86 | 997.2 |
| 20260905033832 | 56 | 274 | 11.0 | 21.0 | 0.00 | 0.00 | 0.30 | 86 | 997.3 |
| 20260905033327 | 56 | 274 | 8.0 | 21.0 | 0.00 | 0.00 | 0.30 | 87 | 997.5 |
| 20260905032823 | 56 | 270 | 5.0 | 14.0 | 0.00 | 0.00 | 0.30 | 87 | 997.3 |
| 20260905032317 | 56 | 274 | 9.0 | 11.0 | 0.00 | 0.00 | 0.30 | 88 | 997.2 |
| 20260905031812 | 56 | 202 | 5.0 | 23.0 | 0.00 | 0.00 | 0.30 | 88 | 997.1 |
| 20260905031306 | 55 | 261 | 10.0 | 16.0 | 0.00 | 0.00 | 0.30 | 89 | 997.0 |
| 20260905030801 | 55 | 310 | 6.0 | 16.0 | 0.00 | 0.00 | 0.30 | 89 | 997.1 |
| 20260905030257 | 55 | 261 | 3.0 | 19.0 | 0.00 | 0.00 | 0.30 | 89 | 997.0 |
| 20260905025246 | 55 | 243 | 8.0 | 16.0 | 0.00 | 0.00 | 0.30 | 89 | 996.8 |
| 20260905024740 | 55 | 67 | 5.0 | 13.0 | 0.00 | 0.00 | 0.30 | 90 | 996.9 |
| 20260905024235 | 55 | 270 | 15.0 | 16.0 | 0.00 | 0.00 | 0.30 | 90 | 996.8 |
| 20260905023730 | 55 | 270 | 7.0 | 16.0 | 0.00 | 0.00 | 0.30 | 90 | 996.7 |
| 20260905023225 | 55 | 252 | 14.0 | 16.0 | 0.00 | 0.00 | 0.30 | 90 | 996.7 |
| 20260905022720 | 55 | 243 | 4.0 | 18.0 | 0.00 | 0.00 | 0.30 | 90 | 996.5 |
| 20260905022215 | 55 | 252 | 4.0 | 19.0 | 0.00 | 0.00 | 0.30 | 90 | 996.5 |
| 20260905021709 | 55 | 283 | 19.0 | 20.0 | 0.00 | 0.00 | 0.30 | 91 | 996.5 |
| 20260905021205 | 55 | 256 | 17.0 | 30.0 | 0.00 | 0.00 | 0.30 | 91 | 996.3 |
| 20260905020659 | 55 | 256 | 8.0 | 22.0 | 0.00 | 0.00 | 0.30 | 92 | 996.3 |
| 20260905020154 | 55 | 261 | 10.0 | 17.0 | 0.00 | 0.00 | 0.30 | 92 | 996.2 |
| 20260905015649 | 55 | 275 | 5.0 | 15.0 | 0.00 | 0.00 | 0.30 | 92 | 996.2 |
| 20260905015143 | 55 | 261 | 14.0 | 21.0 | 0.00 | 0.00 | 0.30 | 93 | 996.4 |
| 20260905014639 | 55 | 333 | 4.0 | 22.0 | 0.00 | 0.00 | 0.30 | 93 | 996.1 |
| 20260905014133 | 55 | 283 | 13.0 | 18.0 | 0.00 | 0.00 | 0.30 | 93 | 996.1 |
| 20260905013628 | 54 | 283 | 11.0 | 21.0 | 0.00 | 0.00 | 0.30 | 94 | 995.9 |
| 20260905013123 | 54 | 247 | 14.0 | 17.0 | 0.00 | 0.00 | 0.30 | 94 | 996.0 |
| 20260905012617 | 54 | 265 | 5.0 | 16.0 | 0.00 | 0.00 | 0.30 | 94 | 996.1 |
| 20260905012113 | 54 | 247 | 13.0 | 21.0 | 0.00 | 0.00 | 0.30 | 94 | 995.9 |
| 20260905011607 | 54 | 270 | 5.0 | 17.0 | 0.00 | 0.00 | 0.30 | 94 | 996.0 |
| 20260905011102 | 54 | 279 | 7.0 | 8.0 | 0.00 | 0.00 | 0.30 | 94 | 995.8 |
| 20260905010557 | 53 | 274 | 8.0 | 12.0 | 0.00 | 0.00 | 0.30 | 94 | 995.8 |
| 20260905010051 | 52 | 225 | 4.0 | 6.0 | 0.00 | 0.00 | 0.29 | 93 | 995.8 |
| 20260905005547 | 52 | 90 | 1.0 | 6.0 | 0.00 | 0.00 | 0.29 | 93 | 995.7 |
| 20260905005041 | 52 | 238 | 3.0 | 4.0 | 0.00 | 0.00 | 0.29 | 92 | 995.7 |
| 20260905004536 | 52 | 45 | 0.0 | 3.0 | 0.00 | 0.00 | 0.29 | 92 | 995.8 |
| 20260905004031 | 51 | 315 | 0.0 | 3.0 | 0.00 | 0.00 | 0.29 | 92 | 995.9 |
| 20260905003525 | 51 | 0 | 0.0 | 3.0 | 0.00 | 0.00 | 0.29 | 91 | 995.9 |
| 20260905003021 | 51 | 270 | 0.0 | 1.0 | 0.00 | 0.00 | 0.28 | 92 | 995.8 |
| 20260905002515 | 51 | 0 | 0.0 | 1.0 | 0.00 | 0.00 | 0.28 | 91 | 995.9 |
| 20260905002010 | 51 | 315 | 0.0 | 3.0 | 0.00 | 0.00 | 0.28 | 91 | 995.9 |
| 20260905001505 | 52 | 279 | 3.0 | 5.0 | 0.00 | 0.00 | 0.28 | 92 | 996.0 |
| 20260905000959 | 52 | 288 | 0.0 | 8.0 | 0.00 | 0.00 | 0.28 | 91 | 995.8 |
| 20260905000455 | 52 | 355 | 6.0 | 9.0 | 0.00 | 0.00 | 0.28 | 92 | 996.0 |
| 20260904235949 | 52 | 324 | 6.0 | 10.0 | 0.00 | 0.00 | 0.27 | 91 | 996.0 |
| 20260904235444 | 52 | 252 | 4.0 | 6.0 | 0.00 | 0.00 | 0.27 | 91 | 995.9 |
| 20260904234939 | 53 | 247 | 5.0 | 8.0 | 0.00 | 0.00 | 0.27 | 91 | 995.8 |
| 20260904234433 | 53 | 279 | 7.0 | 11.0 | 0.00 | 0.00 | 0.26 | 92 | 995.6 |
| 20260904233929 | 53 | 270 | 1.0 | 2.0 | 0.00 | 0.00 | 0.26 | 92 | 995.7 |
| 20260904233423 | 53 | 0 | 0.0 | 3.0 | 0.00 | 0.00 | 0.26 | 91 | 995.5 |
| 20260904232918 | 53 | 225 | 1.0 | 5.0 | 0.00 | 0.00 | 0.26 | 91 | 995.5 |
| 20260904232413 | 53 | 90 | 0.0 | 2.0 | 0.00 | 0.00 | 0.26 | 91 | 995.4 |
| 20260904231907 | 53 | 279 | 0.0 | 6.0 | 0.00 | 0.00 | 0.26 | 91 | 995.5 |
| 20260904231403 | 53 | 252 | 1.0 | 4.0 | 0.00 | 0.00 | 0.26 | 91 | 995.4 |
| 20260904230857 | 53 | 301 | 3.0 | 5.0 | 0.00 | 0.00 | 0.25 | 91 | 995.5 |
| 20260904230352 | 53 | 310 | 5.0 | 6.0 | 0.00 | 0.00 | 0.25 | 91 | 995.3 |
| 20260904225847 | 53 | 0 | 3.0 | 6.0 | 0.00 | 0.00 | 0.25 | 91 | 995.3 |
| 20260904225341 | 53 | 234 | 0.0 | 8.0 | 0.00 | 0.00 | 0.25 | 91 | 995.5 |
| 20260904224837 | 53 | 292 | 4.0 | 6.0 | 0.00 | 0.00 | 0.25 | 91 | 995.5 |
| 20260904224331 | 53 | 225 | 0.0 | 8.0 | 0.00 | 0.00 | 0.25 | 91 | 995.4 |
| 20260904223826 | 53 | 324 | 2.0 | 7.0 | 0.00 | 0.00 | 0.25 | 91 | 995.4 |
| 20260904223321 | 53 | 150 | 0.0 | 6.0 | 0.00 | 0.00 | 0.25 | 91 | 995.5 |
| 20260904222815 | 54 | 9 | 2.0 | 4.0 | 0.00 | 0.00 | 0.25 | 91 | 995.4 |
| 20260904222311 | 54 | 303 | 4.0 | 7.0 | 0.00 | 0.00 | 0.25 | 91 | 995.3 |
| 20260904221805 | 54 | 288 | 7.0 | 7.0 | 0.00 | 0.00 | 0.25 | 91 | 995.3 |
| 20260904221300 | 54 | 310 | 6.0 | 12.0 | 0.00 | 0.00 | 0.24 | 91 | 995.3 |
| 20260904220249 | 54 | 261 | 3.0 | 7.0 | 0.00 | 0.00 | 0.23 | 90 | 995.2 |
| 20260904215745 | 54 | 165 | 1.0 | 6.0 | 0.00 | 0.00 | 0.22 | 91 | 995.1 |
| 20260904215239 | 54 | 333 | 5.0 | 10.0 | 0.00 | 0.00 | 0.22 | 90 | 995.2 |
| 20260904214734 | 54 | 274 | 1.0 | 11.0 | 0.00 | 0.00 | 0.22 | 90 | 995.0 |
| 20260904214229 | 54 | 0 | 0.0 | 4.0 | 0.00 | 0.00 | 0.20 | 89 | 995.0 |
| 20260904213724 | 54 | 270 | 4.0 | 5.0 | 0.00 | 0.00 | 0.20 | 89 | 995.0 |
| 20260904213219 | 54 | 225 | 0.0 | 2.0 | 0.00 | 0.00 | 0.20 | 89 | 995.1 |
| 20260904212713 | 54 | 225 | 1.0 | 2.0 | 0.00 | 0.00 | 0.19 | 89 | 995.0 |
| 20260904212208 | 54 | 85 | 0.0 | 0.0 | 0.00 | 0.00 | 0.19 | 89 | 995.0 |
| 20260904211703 | 54 | 90 | 0.0 | 3.0 | 0.00 | 0.00 | 0.19 | 89 | 994.9 |
| 20260904211158 | 54 | 90 | 0.0 | 0.0 | 0.00 | 0.00 | 0.18 | 89 | 994.9 |
| 20260904210653 | 54 | 90 | 0.0 | 0.0 | 0.00 | 0.00 | 0.18 | 89 | 994.8 |
| 20260904210147 | 54 | 0 | 0.0 | 0.0 | 0.00 | 0.00 | 0.18 | 88 | 994.8 |
| 20260904205642 | 54 | 0 | 0.0 | 0.0 | 0.00 | 0.00 | 0.18 | 88 | 994.8 |
| 20260904205137 | 54 | 0 | 0.0 | 0.0 | 0.00 | 0.00 | 0.18 | 88 | 994.8 |
| 20260904204632 | 53 | 0 | 0.0 | 0.0 | 0.00 | 0.00 | 0.18 | 88 | 994.8 |
| 20260904204127 | 53 | 225 | 0.0 | 1.0 | 0.00 | 0.00 | 0.18 | 88 | 994.9 |
| 20260904203621 | 53 | 265 | 0.0 | 4.0 | 0.00 | 0.00 | 0.18 | 87 | 994.9 |
| 20260904203116 | 53 | 180 | 1.0 | 4.0 | 0.00 | 0.00 | 0.18 | 87 | 994.9 |
| 20260904202611 | 53 | 180 | 3.0 | 4.0 | 0.00 | 0.00 | 0.18 | 86 | 994.9 |
| 20260904202106 | 53 | 211 | 3.0 | 4.0 | 0.00 | 0.00 | 0.18 | 86 | 995.0 |
| 20260904201601 | 53 | 225 | 3.0 | 3.0 | 0.00 | 0.00 | 0.18 | 86 | 994.9 |
| 20260904201055 | 53 | 135 | 2.0 | 3.0 | 0.00 | 0.00 | 0.18 | 86 | 995.1 |
| 20260904200550 | 53 | 135 | 1.0 | 2.0 | 0.00 | 0.00 | 0.18 | 86 | 995.1 |
| 20260904200045 | 53 | 315 | 0.0 | 0.0 | 0.00 | 0.00 | 0.18 | 85 | 995.1 |
| 20260904195540 | 54 | 270 | 0.0 | 0.0 | 0.00 | 0.00 | 0.18 | 86 | 995.3 |
| 20260904195035 | 54 | 45 | 0.0 | 0.0 | 0.00 | 0.00 | 0.18 | 85 | 995.2 |
| 20260904194529 | 54 | 45 | 0.0 | 0.0 | 0.00 | 0.00 | 0.18 | 85 | 995.1 |
| 20260904194024 | 54 | 45 | 0.0 | 0.0 | 0.00 | 0.00 | 0.18 | 85 | 995.1 |
| 20260904193519 | 54 | 45 | 0.0 | 5.0 | 0.00 | 0.00 | 0.18 | 85 | 995.2 |
| 20260904193014 | 54 | 175 | 4.0 | 6.0 | 0.00 | 0.00 | 0.18 | 84 | 995.3 |
| 20260904192509 | 54 | 135 | 1.0 | 3.0 | 0.00 | 0.00 | 0.18 | 84 | 995.2 |
| 20260904192004 | 54 | 45 | 0.0 | 1.0 | 0.00 | 0.00 | 0.18 | 83 | 995.3 |
| 20260904191458 | 54 | 45 | 0.0 | 0.0 | 0.00 | 0.00 | 0.18 | 83 | 995.2 |
| 20260904190953 | 54 | 45 | 0.0 | 0.0 | 0.00 | 0.00 | 0.18 | 83 | 995.3 |
| 20260904190448 | 54 | 45 | 0.0 | 0.0 | 0.00 | 0.00 | 0.18 | 83 | 995.3 |
| 20260904185943 | 54 | 270 | 0.0 | 1.0 | 0.00 | 0.00 | 0.18 | 83 | 995.4 |
| 20260904185437 | 54 | 270 | 0.0 | 0.0 | 0.00 | 0.00 | 0.18 | 82 | 995.4 |